GW3620 Weather Reports


Display with metric or nautical units.
time (UTC)temp
F
wind
direction
speed
MPH
gust
MPH
rain 1hr
in
rain 24hr
in
rain mn
in
humidity
%
barometer
mb
20260508181033 83 36 0.0 1.0 0.00 0.00 0.00 19 1012.3
20260508180031 83 336 1.0 6.0 0.00 0.00 0.00 20 1012.4
20260508175033 83 284 1.0 6.0 0.00 0.00 0.00 20 1012.4
20260508174033 82 279 0.0 6.0 0.00 0.00 0.00 20 1012.4
20260508173033 81 283 1.0 6.0 0.00 0.00 0.00 20 1012.5
20260508172033 81 52 2.0 9.0 0.00 0.00 0.00 21 1012.5
20260508171031 80 79 2.0 7.0 0.00 0.00 0.00 21 1013.0
20260508170033 80 292 1.0 7.0 0.00 0.00 0.00 22 1013.1
20260508165033 79 41 1.0 6.0 0.00 0.00 0.00 23 1013.1
20260508164033 78 50 0.0 6.0 0.00 0.00 0.00 24 1013.1
20260508163033 78 56 0.0 4.0 0.00 0.00 0.00 24 1013.1
20260508162050 77 78 0.0 6.0 0.00 0.00 0.00 24 1013.1
20260508161033 76 85 0.0 3.0 0.00 0.00 0.00 25 1013.1
20260508160031 75 274 1.0 6.0 0.00 0.00 0.00 26 1013.4
20260508155033 75 81 1.0 3.0 0.00 0.00 0.00 27 1013.4
20260508154033 74 49 1.0 6.0 0.00 0.00 0.00 28 1013.6
20260508153033 72 74 1.0 4.0 0.00 0.00 0.00 29 1013.2
20260508152033 72 280 1.0 6.0 0.00 0.00 0.00 30 1013.2
20260508151033 72 285 1.0 3.0 0.00 0.00 0.00 30 1013.2
20260508150050 71 273 0.0 3.0 0.00 0.00 0.00 31 1013.1
20260508145048 71 33 0.0 3.0 0.00 0.00 0.00 32 1013.1
20260508144033 71 0 0.0 0.0 0.00 0.00 0.00 32 1013.0
20260508143033 71 0 0.0 0.0 0.00 0.00 0.00 31 1012.4
20260508142033 70 0 0.0 0.0 0.00 0.00 0.00 32 1012.4
20260508141033 69 0 0.0 0.0 0.00 0.00 0.00 34 1012.7
20260508140033 66 0 0.0 0.0 0.00 0.00 0.00 37 1012.8
20260508135031 64 0 0.0 0.0 0.00 0.00 0.00 40 1012.8
20260508134031 62 0 0.0 0.0 0.00 0.00 0.00 42 1013.1
20260508133033 60 0 0.0 0.0 0.00 0.00 0.00 46 1012.9
20260508132033 59 20 0.0 1.0 0.00 0.00 0.00 50 1012.9
20260508131033 58 0 0.0 0.0 0.00 0.00 0.00 50 1012.9
20260508130033 58 0 0.0 0.0 0.00 0.00 0.00 49 1012.6
20260508125033 58 0 0.0 0.0 0.00 0.00 0.00 49 1012.6
20260508124031 58 0 0.0 0.0 0.00 0.00 0.00 48 1012.6
20260508123031 58 0 0.0 0.0 0.00 0.00 0.00 48 1012.2
20260508122033 59 0 0.0 0.0 0.00 0.00 0.00 46 1012.2
20260508121033 59 0 0.0 0.0 0.00 0.00 0.00 43 1012.0
20260508120033 60 0 0.0 0.0 0.00 0.00 0.00 42 1011.7
20260508115033 61 0 0.0 0.0 0.00 0.00 0.00 42 1011.7
20260508114033 62 0 0.0 0.0 0.00 0.00 0.00 39 1011.6
20260508113031 62 0 0.0 0.0 0.00 0.00 0.00 37 1011.5
20260508112033 62 0 0.0 0.0 0.00 0.00 0.00 37 1011.5
20260508111050 62 358 0.0 1.0 0.00 0.00 0.00 37 1011.5
20260508110050 62 0 0.0 0.0 0.00 0.00 0.00 37 1011.5
20260508105033 62 336 0.0 1.0 0.00 0.00 0.00 38 1011.5
20260508104033 61 331 0.0 1.0 0.00 0.00 0.00 39 1011.5
20260508103033 61 308 0.0 1.0 0.00 0.00 0.00 40 1011.5
20260508102048 61 0 0.0 0.0 0.00 0.00 0.00 40 1011.5
20260508101033 61 0 0.0 0.0 0.00 0.00 0.00 39 1011.4
20260508100033 61 0 0.0 0.0 0.00 0.00 0.00 39 1011.4
20260508095033 62 0 0.0 0.0 0.00 0.00 0.00 39 1011.4
20260508094033 62 0 0.0 0.0 0.00 0.00 0.00 38 1011.4
20260508093033 63 0 0.0 0.0 0.00 0.00 0.00 37 1011.5
20260508092033 63 71 0.0 1.0 0.00 0.00 0.00 35 1011.5
20260508091031 63 61 0.0 1.0 0.00 0.00 0.00 36 1011.5
20260508090105 63 0 0.0 0.0 0.00 0.00 0.00 35 1011.5
20260508085033 63 0 0.0 0.0 0.00 0.00 0.00 35 1011.5
20260508084033 63 0 0.0 0.0 0.00 0.00 0.00 36 1011.5
20260508083033 64 0 0.0 0.0 0.00 0.00 0.00 36 1012.0
20260508082033 64 61 0.0 1.0 0.00 0.00 0.00 36 1012.0
20260508081033 64 0 0.0 0.0 0.00 0.00 0.00 36 1011.9
20260508080031 64 0 0.0 0.0 0.00 0.00 0.00 35 1012.0
20260508075033 65 0 0.0 0.0 0.00 0.00 0.00 34 1012.0
20260508074050 65 61 0.0 1.0 0.00 0.00 0.00 34 1012.1
20260508073033 65 0 0.0 0.0 0.00 0.00 0.00 34 1012.1
20260508072033 65 0 0.0 0.0 0.00 0.00 0.00 34 1012.1
20260508071033 65 0 0.0 0.0 0.00 0.00 0.00 34 1012.2
20260508070033 66 0 0.0 0.0 0.00 0.00 0.00 34 1012.0
20260508065031 66 0 0.0 0.0 0.00 0.00 0.00 33 1012.0
20260508064033 67 0 0.0 0.0 0.00 0.00 0.00 32 1012.2
20260508063033 67 0 0.0 0.0 0.00 0.00 0.00 32 1012.3
20260508062033 68 0 0.0 0.0 0.00 0.00 0.00 31 1012.3
20260508061033 68 0 0.0 0.0 0.00 0.00 0.00 30 1012.3
20260508060033 68 0 0.0 0.0 0.00 0.00 0.00 30 1012.4
20260508055033 68 0 0.0 0.0 0.00 0.00 0.00 30 1012.4
20260508054031 68 0 0.0 0.0 0.00 0.00 0.00 29 1012.2
20260508053033 69 0 0.0 0.0 0.00 0.00 0.00 29 1012.4
20260508052033 69 0 0.0 0.0 0.00 0.00 0.00 29 1012.4
20260508051033 70 0 0.0 0.0 0.00 0.00 0.00 27 1012.2
20260508050033 70 0 0.0 0.0 0.00 0.00 0.00 27 1012.1
20260508045033 71 0 0.0 0.0 0.00 0.00 0.00 26 1012.1
20260508044031 71 0 0.0 0.0 0.00 0.00 0.00 25 1012.0
20260508043031 72 0 0.0 0.0 0.00 0.00 0.00 25 1011.9
20260508042033 73 0 0.0 0.0 0.00 0.00 0.00 24 1011.9
20260508041033 73 0 0.0 0.0 0.00 0.00 0.00 23 1011.5
20260508040033 73 270 0.0 7.0 0.00 0.00 0.00 23 1011.4
20260508035033 74 0 0.0 0.0 0.00 0.00 0.00 22 1011.4
20260508034033 75 0 0.0 0.0 0.00 0.00 0.00 21 1010.8
20260508033033 76 0 0.0 0.0 0.00 0.00 0.00 20 1011.0
20260508032031 77 0 0.0 0.0 0.00 0.00 0.00 19 1011.0
20260508031033 78 28 0.0 3.0 0.00 0.00 0.00 17 1010.6
20260508030033 79 274 1.0 3.0 0.00 0.00 0.00 16 1010.1
20260508025033 80 299 1.0 6.0 0.00 0.00 0.00 15 1010.1
20260508024033 80 302 3.0 9.0 0.00 0.00 0.00 15 1009.4
20260508023033 81 301 3.0 7.0 0.00 0.00 0.00 15 1009.7
20260508022031 81 298 7.0 12.0 0.00 0.00 0.00 14 1009.7
20260508021050 82 310 2.0 7.0 0.00 0.00 0.00 14 1009.4
20260508020033 83 296 5.0 15.0 0.00 0.00 0.00 14 1008.9
20260508015033 83 297 4.0 10.0 0.00 0.00 0.00 14 1008.9
20260508014033 84 327 3.0 10.0 0.00 0.00 0.00 14 1008.9
20260508013033 84 304 2.0 7.0 0.00 0.00 0.00 14 1009.3
20260508012033 85 307 4.0 12.0 0.00 0.00 0.00 14 1009.3
20260508011031 85 1 2.0 12.0 0.00 0.00 0.00 14 1009.1
20260508010033 85 293 2.0 9.0 0.00 0.00 0.00 14 1008.9
20260508005033 86 294 6.0 12.0 0.00 0.00 0.00 14 1008.9
20260508004033 86 299 8.0 16.0 0.00 0.00 0.00 14 1008.7
20260508003033 86 296 5.0 15.0 0.00 0.00 0.00 14 1008.6
20260508002033 87 318 7.0 15.0 0.00 0.00 0.00 14 1008.6
20260508001050 88 320 3.0 12.0 0.00 0.00 0.00 14 1008.6
20260508000031 88 304 3.0 10.0 0.00 0.00 0.00 14 1008.6
20260507235033 88 322 3.0 13.0 0.00 0.00 0.00 14 1008.6
20260507234033 87 284 4.0 15.0 0.00 0.00 0.00 14 1008.6
20260507233033 87 320 3.0 10.0 0.00 0.00 0.00 14 1008.3
20260507232033 87 289 4.0 13.0 0.00 0.00 0.00 15 1008.3
20260507231033 87 301 9.0 15.0 0.00 0.00 0.00 15 1008.3
20260507230031 87 291 7.0 12.0 0.00 0.00 0.00 15 1008.5
20260507225031 87 290 8.0 18.0 0.00 0.00 0.00 15 1008.5
20260507224033 87 88 5.0 10.0 0.00 0.00 0.00 15 1008.7
20260507223033 87 46 0.0 7.0 0.00 0.00 0.00 15 1008.9
20260507222033 87 324 1.0 7.0 0.00 0.00 0.00 15 1008.9
20260507221107 86 296 8.0 15.0 0.00 0.00 0.00 15 1009.1
20260507220031 87 300 6.0 16.0 0.00 0.00 0.00 15 1009.2
20260507215031 87 294 6.0 15.0 0.00 0.00 0.00 16 1009.2
20260507214033 87 331 3.0 9.0 0.00 0.00 0.00 16 1009.4
20260507213033 87 9 0.0 7.0 0.00 0.00 0.00 16 1009.5
20260507212033 86 322 1.0 6.0 0.00 0.00 0.00 16 1009.5
20260507211033 86 356 0.0 6.0 0.00 0.00 0.00 16 1009.9
20260507210033 86 302 6.0 12.0 0.00 0.00 0.00 16 1010.1
20260507205033 85 295 4.0 9.0 0.00 0.00 0.00 16 1010.1
20260507204031 85 317 2.0 13.0 0.00 0.00 0.00 16 1010.2
20260507203033 85 305 2.0 7.0 0.00 0.00 0.00 16 1010.3
20260507202031 84 340 2.0 15.0 0.00 0.00 0.00 16 1010.3
20260507201033 85 292 8.0 19.0 0.00 0.00 0.00 16 1010.5
20260507200033 85 24 1.0 10.0 0.00 0.00 0.00 16 1010.6
20260507195033 85 23 2.0 12.0 0.00 0.00 0.00 16 1010.6
20260507194033 84 283 1.0 7.0 0.00 0.00 0.00 16 1010.8
20260507193031 84 286 3.0 10.0 0.00 0.00 0.00 16 1011.1
20260507192033 84 299 3.0 13.0 0.00 0.00 0.00 16 1011.1
20260507191050 84 305 2.0 7.0 0.00 0.00 0.00 16 1011.2
20260507190033 83 43 1.0 6.0 0.00 0.00 0.00 16 1011.6
20260507185033 83 271 0.0 4.0 0.00 0.00 0.00 16 1011.6
20260507184033 82 286 0.0 1.0 0.00 0.00 0.00 17 1011.9
20260507183048 82 27 0.0 6.0 0.00 0.00 0.00 17 1012.0
20260507182031 81 1 2.0 7.0 0.00 0.00 0.00 18 1012.0